Date,TemperatureHighF,TemperatureAvgF,TemperatureLowF,DewpointHighF,DewpointAvgF,DewpointLowF,HumidityHigh,HumidityAvg,HumidityLow,PressureMaxIn,PressureMinIn,WindSpeedMaxMPH,WindSpeedAvgMPH,GustSpeedMaxMPH,PrecipitationSumIn
2013-1-1,51.9,44.5,35.5,42.0,36.4,12.0,95,75,37,30.14,29.93,20,5,29,0.10
2013-1-2,41.2,34.9,31.5,39.0,31.3,28.0,94,87,78,30.17,29.90,11,3,21,0.11
2013-1-3,36.2,31.2,27.9,32.0,26.5,20.0,95,83,63,30.28,30.14,15,3,16,0.00
2013-1-4,36.5,27.9,23.2,20.0,18.3,15.0,79,68,43,30.38,30.27,18,10,28,0.01
2013-1-5,44.9,33.0,23.6,26.0,18.4,13.0,77,58,27,30.45,30.25,26,4,28,0.01
2013-1-6,42.1,35.2,31.4,33.0,28.7,24.0,88,77,63,30.27,30.08,18,5,28,0.00
2013-1-7,42.5,33.6,26.5,28.0,24.0,22.0,83,69,48,30.45,30.21,15,4,25,0.00
2013-1-8,47.2,37.1,25.0,38.0,28.8,23.0,90,73,50,30.47,30.38,10,2,18,0.00
2013-1-9,57.2,47.4,32.7,50.0,43.9,32.0,97,88,69,30.47,30.39,12,2,18,0.00
2013-1-10,54.3,48.5,45.0,52.0,43.0,31.0,97,82,55,30.51,30.37,8,2,12,0.00
2013-1-11,52.5,45.4,39.1,52.0,43.9,35.0,97,94,67,30.37,30.13,15,4,20,0.16
2013-1-12,68.5,59.3,52.8,58.0,55.2,51.0,96,86,63,30.16,30.03,15,2,22,0.00
2013-1-13,61.4,58.2,55.8,56.0,54.2,52.0,92,86,80,30.06,29.96,28,10,38,0.01
2013-1-14,58.2,54.1,43.9,56.0,53.1,43.0,98,96,89,30.13,30.00,17,3,28,1.22
2013-1-15,44.7,41.3,36.3,44.0,40.6,36.0,97,97,96,30.16,30.05,6,0,7,0.77
2013-1-16,58.6,48.4,37.9,52.0,45.8,37.0,98,91,64,30.06,29.95,16,2,23,0.03
2013-1-17,48.3,38.5,31.4,47.0,37.4,30.0,96,95,92,29.98,29.87,17,5,25,0.42
2013-1-18,36.2,28.9,23.8,30.0,25.7,22.0,94,88,73,30.49,30.42,5,0,7,0.07
2013-1-19,46.2,32.1,22.0,32.0,24.8,19.0,91,76,45,30.49,30.19,5,1,9,0.17
2013-1-20,44.7,38.2,29.1,30.0,26.9,21.0,87,65,47,30.18,30.07,18,9,26,0.18
2013-1-21,41.0,33.8,23.9,27.0,19.1,8.0,77,56,42,30.09,29.95,27,8,35,0.00
2013-1-22,23.4,18.2,13.7,6.0,-2.1,-6.0,53,41,29,30.28,29.97,26,10,37,0.00
2013-1-23,35.1,23.9,15.5,24.0,9.8,-5.0,68,56,37,30.38,30.07,24,8,38,0.00
2013-1-24,36.1,23.7,13.1,27.0,10.8,1.0,71,58,42,30.46,29.95,33,13,53,0.01
2013-1-25,34.6,19.7,12.7,32.0,14.3,2.0,95,80,60,30.48,30.15,18,5,23,0.00
2013-1-26,37.1,30.4,25.4,30.0,23.7,21.0,89,77,58,30.38,30.14,18,8,25,0.04
2013-1-27,30.4,25.5,19.3,25.0,21.8,18.0,100,86,75,30.58,30.38,13,2,14,0.02
2013-1-28,54.1,39.3,29.0,42.0,34.1,26.0,95,83,63,30.48,30.26,11,2,20,0.04
2013-1-29,63.0,52.8,38.6,54.0,45.5,37.0,94,78,53,30.27,29.99,15,4,24,0.04
2013-1-30,58.2,54.3,42.2,57.0,52.9,39.0,97,95,86,29.99,29.38,29,13,44,3.28
2013-1-31,42.3,29.4,25.1,38.0,21.4,17.0,90,72,61,29.98,29.39,35,15,46,3.28
2013-2-1,35.5,20.0,12.9,27.0,9.5,0.0,92,65,50,30.37,29.89,31,12,56,0.00
2013-2-2,28.8,21.3,10.7,26.0,13.5,5.0,94,73,54,30.41,30.09,14,2,18,0.00
2013-2-3,31.5,28.4,24.8,27.0,23.0,18.0,91,80,71,30.07,29.91,21,12,33,0.07
2013-2-4,39.6,29.9,19.7,24.0,19.1,14.0,79,65,51,30.16,30.01,17,4,21,0.07
2013-2-5,41.5,37.7,30.9,34.0,28.9,23.0,88,71,54,30.00,29.95,14,4,22,0.00
2013-2-6,48.1,39.8,28.4,32.0,24.6,17.0,78,57,31,30.27,29.99,13,4,28,0.00
2013-2-7,38.9,34.2,28.4,35.0,28.8,21.0,96,81,58,30.31,30.07,9,1,13,0.35
2013-2-8,44.1,34.4,28.6,41.0,30.1,22.5,100,85,58,30.10,29.90,34,8,34,0.01
2013-2-9,48.6,33.7,26.3,22.4,16.3,2.9,78,53,18,30.38,30.08,35,5,35,0.01
2013-2-10,42.6,36.2,30.7,34.0,19.0,15.9,94,50,40,30.43,30.18,22,4,22,0.17
2013-2-11,57.6,47.6,35.3,51.0,38.8,24.0,97,75,39,30.18,29.95,25,13,38,0.28
2013-2-12,50.7,41.6,34.4,32.1,20.2,11.9,91,45,22,30.09,29.92,33,6,33,0.03
2013-2-13,40.6,35.2,31.4,39.0,33.5,28.0,97,93,86,29.95,29.63,23,6,33,0.07
2013-2-14,46.1,35.7,27.6,29.0,24.5,19.0,88,66,35,30.07,29.86,17,5,25,0.07
2013-2-15,48.8,37.7,29.6,34.0,28.6,25.0,89,72,40,30.11,29.95,15,5,22,0.00
2013-2-16,30.1,25.3,18.0,24.0,17.4,9.0,84,72,56,29.99,29.85,26,6,29,0.00
2013-2-17,26.4,20.0,12.9,13.0,6.4,3.0,86,57,39,30.29,29.97,27,13,38,0.00
2013-2-18,44.0,32.1,16.0,24.0,15.5,5.0,74,51,40,30.43,30.19,17,4,22,0.00
2013-2-19,44.6,35.6,29.0,38.0,24.6,11.0,96,66,38,30.18,29.86,26,13,40,0.00
2013-2-20,37.4,29.9,24.3,14.0,6.3,-2.0,57,39,19,30.17,29.99,21,8,29,0.00
2013-2-21,52.5,37.1,24.0,25.0,8.9,-5.0,70,34,10,30.26,30.12,14,4,22,0.00
2013-2-22,33.0,30.1,28.3,32.0,28.8,27.0,97,95,78,30.28,30.13,9,3,14,0.06
2013-2-23,49.4,38.8,30.3,46.0,37.5,30.0,100,95,84,30.16,29.86,7,1,8,0.26
2013-2-24,47.6,40.7,33.9,40.0,27.9,19.0,96,63,41,30.05,29.85,15,6,26,0.26
2013-2-25,37.4,30.4,25.8,24.0,21.7,20.0,79,70,57,30.17,30.03,13,3,16,0.00
2013-2-26,39.7,33.2,25.4,39.0,31.2,19.0,97,92,68,30.14,29.61,20,5,30,0.95
2013-2-27,46.8,37.9,33.4,35.0,30.0,26.0,95,74,48,29.80,29.65,20,10,40,0.96
2013-2-28,33.9,29.2,26.7,28.0,24.1,22.0,89,81,71,29.89,29.69,27,9,28,0.00
2013-3-1,33.0,29.5,27.0,27.0,24.4,23.0,88,81,71,29.95,29.88,16,6,26,0.01
2013-3-2,30.5,26.6,20.2,25.0,21.1,13.0,85,80,68,29.96,29.88,18,5,27,0.01
2013-3-3,26.1,21.1,17.8,16.0,13.4,11.0,81,72,63,30.05,29.94,21,11,30,0.00
2013-3-4,42.7,29.5,19.5,16.0,11.0,5.0,74,50,23,30.18,30.05,21,8,30,0.00
2013-3-5,40.1,35.0,30.8,37.0,27.4,13.0,96,76,43,30.12,29.64,19,2,30,0.68
2013-3-6,32.4,25.6,22.5,30.0,21.7,18.0,92,85,75,30.15,29.63,34,15,43,0.68
2013-3-7,33.2,27.1,23.9,25.0,22.4,19.0,91,82,71,30.33,30.15,25,9,29,0.00
2013-3-8,42.2,31.0,23.9,25.0,21.4,19.0,83,69,46,30.39,30.27,19,7,30,0.00
2013-3-9,55.5,40.0,22.4,30.0,24.8,20.0,90,59,31,30.42,30.27,13,2,18,0.00
2013-3-10,55.8,47.8,38.9,34.0,30.5,27.0,62,52,42,30.31,30.15,15,4,24,0.00
2013-3-11,50.4,44.7,39.8,48.0,39.8,33.0,96,83,56,30.17,29.88,23,5,31,0.59
2013-3-12,49.1,42.7,36.2,48.0,37.8,28.0,96,83,63,29.99,29.75,21,8,26,0.01
2013-3-13,36.0,31.0,23.0,29.0,21.5,13.0,91,68,52,30.16,29.99,28,10,32,0.01
2013-3-14,37.4,27.5,19.1,16.0,13.4,11.0,74,57,36,30.32,30.14,22,11,40,0.00
2013-3-15,56.6,42.8,29.6,39.0,27.2,15.0,75,55,37,30.25,29.93,24,8,33,0.00
2013-3-16,66.4,57.9,49.9,50.0,44.6,38.0,88,63,46,29.92,29.65,35,9,41,0.02
2013-3-17,54.2,48.0,33.9,49.0,44.4,33.0,96,87,77,30.07,29.82,10,2,13,0.01
2013-3-18,35.2,31.5,29.3,35.0,30.7,28.0,97,96,96,30.11,29.91,10,3,14,0.31
2013-3-19,48.1,40.5,34.9,43.0,26.6,6.0,98,64,27,30.07,29.89,32,9,37,0.33
2013-3-20,43.8,35.1,27.9,27.0,10.0,3.0,91,37,20,30.10,29.83,22,8,27,0.00
2013-3-21,28.4,22.3,17.3,26.0,10.8,6.0,92,62,48,30.02,29.76,24,10,30,0.00
2013-3-22,42.7,28.3,15.8,13.0,8.3,4.0,74,47,21,30.13,30.01,13,6,18,0.00
2013-3-23,46.6,37.8,31.0,38.0,29.2,14.0,92,72,46,30.08,29.92,8,1,13,0.00
2013-3-24,39.3,34.0,29.1,34.0,31.5,28.0,96,90,72,29.94,29.54,10,2,14,0.53
2013-3-25,30.8,27.9,25.8,30.0,23.8,20.0,96,85,72,29.86,29.54,25,11,36,0.08
2013-3-26,32.4,28.0,25.4,25.0,22.3,20.0,85,79,71,30.19,29.85,20,11,29,0.04
2013-3-27,33.2,28.4,25.0,23.0,19.1,17.0,88,69,56,30.31,30.18,18,10,30,0.01
2013-3-28,40.5,32.4,26.4,22.0,19.5,17.0,77,60,45,30.34,30.26,20,7,28,0.01
2013-3-29,47.0,37.4,26.6,30.0,21.2,14.0,74,54,28,30.38,30.23,17,4,22,0.01
2013-3-30,54.2,42.8,29.3,37.0,29.7,25.0,92,64,35,30.27,30.09,11,2,16,0.00
2013-3-31,54.8,46.9,42.6,48.0,43.4,36.0,97,88,67,30.08,29.82,19,3,26,0.09
2013-4-1,51.2,46.0,38.3,45.0,38.3,30.0,93,75,51,29.98,29.83,31,8,38,0.10
2013-4-2,46.3,39.0,30.1,30.0,18.8,12.0,75,46,30,30.19,29.98,17,6,23,0.00
2013-4-3,50.2,38.8,28.7,20.5,14.0,6.4,55,37,17,30.33,30.18,14,4,20,0.00
2013-4-4,37.6,32.0,29.6,31.0,22.1,10.6,96,70,36,30.31,30.02,9,1,13,0.31
2013-4-5,51.9,40.6,31.3,39.6,33.8,30.0,97,79,49,30.10,29.99,16,3,22,0.47
2013-4-6,56.8,44.7,32.8,36.0,31.9,28.3,85,62,39,30.24,30.09,12,3,20,0.00
2013-4-7,61.2,52.3,42.6,44.0,38.9,32.0,72,61,50,30.19,30.06,18,6,23,0.00
2013-4-8,67.9,57.8,42.2,50.0,45.1,39.0,88,64,50,30.15,30.00,19,5,30,0.00
2013-4-9,73.9,62.8,44.1,53.0,49.4,42.0,94,64,42,30.17,30.03,14,3,22,0.00
2013-4-10,76.7,65.9,53.0,57.0,52.9,50.0,90,65,44,30.06,29.87,16,3,19,0.00
2013-4-11,69.8,63.2,56.2,59.0,54.1,52.0,96,73,54,29.90,29.65,19,7,28,0.09
2013-4-12,61.4,57.0,48.2,61.0,52.8,36.0,97,87,62,29.77,29.60,30,14,39,0.06
2013-4-13,60.8,52.4,45.0,37.0,33.1,29.0,67,50,33,30.03,29.75,22,8,33,0.00
2013-4-14,65.1,54.3,40.1,45.0,36.9,32.0,74,54,35,30.11,29.97,19,4,27,0.00
2013-4-15,53.0,49.8,47.3,52.0,48.5,46.0,98,95,76,30.22,29.98,15,3,17,0.27
2013-4-16,68.8,58.8,51.6,60.0,54.7,51.0,98,87,67,30.28,30.14,15,3,20,0.05
2013-4-17,65.7,59.1,55.4,59.0,55.2,53.0,96,87,72,30.23,30.10,8,1,19,0.03
2013-4-18,67.6,61.3,55.8,58.0,55.6,53.0,96,82,63,30.11,29.90,22,5,25,0.01
2013-4-19,61.8,56.0,41.0,60.0,53.8,33.0,98,92,73,29.90,29.65,30,14,44,0.01
2013-4-20,50.6,41.4,32.8,33.0,27.0,24.0,76,58,39,30.32,29.85,28,8,36,0.02
2013-4-21,50.2,41.4,30.7,33.0,29.1,25.0,83,63,47,30.50,30.33,12,3,15,0.46
2013-4-22,54.5,43.6,32.0,36.0,31.2,25.0,91,64,39,30.46,30.25,10,2,14,0.08
2013-4-23,61.8,48.0,28.5,46.0,37.6,26.0,91,69,50,30.31,30.10,15,2,18,0.00
2013-4-24,64.3,55.5,47.5,54.0,48.6,43.0,95,78,63,30.13,29.92,18,6,25,0.05
2013-4-25,58.6,46.9,34.3,44.0,30.1,18.0,89,58,21,30.32,30.05,14,5,22,0.05
2013-4-26,59.4,50.0,39.2,37.0,32.2,27.0,66,51,39,30.44,30.30,12,3,18,0.00
2013-4-27,53.6,50.2,46.7,48.0,42.2,34.0,96,75,51,30.37,30.24,9,1,16,0.13
2013-4-28,49.9,47.2,45.3,49.0,46.1,44.0,97,95,90,30.24,30.04,15,3,23,0.77
2013-4-29,61.3,54.1,48.1,54.0,51.0,47.0,98,90,66,30.08,29.95,8,2,13,0.04
2013-4-30,64.3,56.7,51.6,56.0,52.9,51.0,97,87,70,30.16,29.99,12,3,16,0.00
2013-5-1,59.2,53.7,49.7,52.0,49.8,47.0,95,86,73,30.29,30.15,15,4,18,0.01
2013-5-2,53.9,50.4,48.1,53.0,49.5,47.0,97,96,93,30.31,30.24,10,4,17,0.14
2013-5-3,55.5,50.8,45.8,49.0,45.0,42.0,97,81,63,30.26,30.14,15,6,23,0.01
2013-5-4,52.1,45.0,40.0,44.0,40.1,35.0,96,84,56,30.14,30.04,14,6,32,0.08
2013-5-5,48.5,45.2,41.4,48.0,43.0,36.0,97,92,79,30.09,29.90,21,8,38,0.84
2013-5-6,55.2,49.0,42.8,52.0,47.9,42.0,97,96,88,29.92,29.83,25,7,39,1.46
2013-5-7,53.9,47.3,42.2,52.0,46.3,41.0,98,96,85,29.95,29.88,9,1,17,0.65
2013-5-8,58.8,50.2,40.8,53.0,48.0,40.0,99,92,76,30.04,29.92,15,3,21,0.33
2013-5-9,68.0,58.3,48.9,52.0,49.5,48.0,95,75,53,30.08,30.00,15,4,21,0.23
2013-5-10,70.4,58.6,46.9,58.0,52.7,45.0,96,82,59,30.08,29.91,19,3,29,0.11
2013-5-11,66.2,60.1,54.1,57.0,54.2,51.0,96,81,64,29.93,29.76,13,4,19,0.07
2013-5-12,56.2,49.3,43.5,51.0,36.9,29.0,90,64,43,30.05,29.82,24,8,25,0.01
2013-5-13,53.9,45.5,36.8,32.0,27.6,24.0,75,52,33,30.20,30.05,24,5,30,0.01
2013-5-14,63.9,50.3,31.7,45.0,36.4,27.0,86,61,39,30.27,30.05,15,4,24,0.03
2013-5-15,77.6,67.6,52.1,56.0,51.7,44.0,76,58,38,30.07,29.89,23,10,30,0.01
2013-5-16,72.2,65.5,57.8,55.0,49.4,43.0,67,57,38,29.98,29.88,17,7,25,0.00
2013-5-17,71.9,60.8,51.2,61.0,54.6,46.0,97,81,58,30.08,29.98,12,1,15,0.36
2013-5-18,61.8,58.7,54.8,60.0,57.8,54.0,98,96,91,30.11,30.04,11,2,19,0.36
2013-5-19,66.1,61.2,58.9,63.0,60.3,58.0,100,96,88,30.09,29.98,12,3,19,0.19
2013-5-20,71.7,63.7,60.1,64.0,61.0,59.0,98,91,74,30.07,29.97,11,1,16,0.07
2013-5-21,77.6,66.8,57.2,66.0,61.4,56.0,99,84,56,30.02,29.86,15,2,26,0.02
2013-5-22,72.3,65.0,58.0,65.0,60.4,56.0,97,85,69,29.94,29.85,18,4,22,0.01
2013-5-25,50.1,49.6,49.4,35.0,33.3,32.0,58,54,51,30.13,30.11,4,1,4,0.00
2013-5-26,64.9,55.0,47.2,49.0,42.6,34.0,89,64,47,30.24,30.13,15,3,21,0.01
2013-5-27,69.7,58.1,43.9,58.0,51.6,43.0,97,80,64,30.28,30.12,18,3,21,0.01
2013-5-28,71.8,65.5,57.0,62.0,58.4,54.0,92,78,65,30.17,30.07,15,4,23,0.01
2013-5-29,74.1,67.0,56.9,64.0,59.2,55.0,97,77,56,30.17,30.08,24,4,25,0.01
2013-5-30,73.4,66.0,54.3,64.0,59.0,53.0,97,79,62,30.20,30.11,12,2,18,0.01
2013-5-31,73.2,67.5,57.0,64.0,59.9,55.0,93,77,65,30.16,30.05,16,4,24,0.01
2013-6-1,75.1,67.7,60.4,64.0,61.1,57.0,96,80,55,30.07,29.93,17,5,28,0.01
2013-6-2,70.7,64.5,61.1,65.0,61.7,60.0,97,90,80,29.97,29.85,16,4,25,0.13
2013-6-3,72.3,65.2,58.2,62.0,59.4,56.0,98,83,62,29.95,29.81,10,2,20,0.02
2013-6-4,68.6,60.4,54.1,62.0,56.6,53.0,97,87,75,30.08,29.95,9,1,13,0.02
2013-6-5,64.6,60.1,55.5,62.0,59.1,54.0,98,96,89,30.09,29.98,9,2,16,0.00
2013-6-6,69.2,63.3,58.1,66.0,62.2,58.0,100,96,88,29.99,29.74,9,2,14,0.04
2013-6-7,69.8,63.7,60.0,65.0,61.3,57.0,98,92,78,29.80,29.61,12,2,17,0.01
2013-6-8,71.5,63.9,55.0,65.0,59.6,54.0,98,86,63,30.06,29.78,11,2,14,0.34
2013-6-9,74.6,65.5,60.8,67.0,62.8,60.0,98,91,69,30.11,30.00,15,2,22,0.91
2013-6-10,70.9,65.3,60.5,66.0,61.9,54.0,98,89,57,30.02,29.81,20,6,29,0.28
2013-6-11,71.9,64.9,58.6,63.0,59.3,57.0,96,83,69,29.96,29.86,15,5,22,0.52
2013-6-12,81.9,72.0,59.7,69.0,64.8,58.0,93,79,60,29.97,29.83,21,4,23,0.00
2013-6-13,78.4,68.1,59.9,66.2,61.6,53.6,95,80,64,29.83,29.59,33,9,35,0.10
2013-6-14,68.8,60.3,55.1,54.0,51.8,49.0,88,74,53,30.03,29.74,19,5,26,0.10
2013-6-15,73.3,62.4,47.8,61.0,53.7,47.0,97,76,51,30.14,30.01,11,2,15,0.00
2013-6-16,75.3,66.4,55.0,66.0,60.4,54.0,97,82,63,30.09,29.95,14,3,18,0.00
2013-6-17,74.0,67.1,61.1,67.0,63.4,60.0,97,89,70,29.99,29.87,13,2,15,0.01
2013-6-18,67.5,64.8,60.9,66.0,63.0,59.0,98,93,86,29.91,29.75,12,2,17,0.34
2013-6-19,71.7,62.7,54.1,65.0,59.0,53.0,98,88,61,30.11,29.90,9,1,12,0.09
2013-6-20,63.0,58.1,55.4,63.0,57.6,55.0,99,98,96,30.19,30.11,0,0,3,0.09
2013-6-23,75.0,70.7,66.5,67.1,64.4,63.0,95,81,69,30.14,30.08,6,1,9,0.05
2013-6-24,75.6,66.5,58.2,68.0,63.3,57.0,99,90,69,30.16,30.04,10,1,17,0.40
2013-6-25,78.9,68.3,59.3,68.0,63.8,59.0,98,86,55,30.09,29.96,11,2,15,0.40
2013-6-26,78.9,69.1,59.9,68.0,64.6,59.0,99,86,64,29.99,29.85,14,3,25,0.01
2013-6-27,74.0,68.3,63.1,68.0,64.3,60.0,98,87,75,29.88,29.68,22,5,25,0.06
2013-6-28,76.6,70.2,65.5,66.0,63.1,59.0,92,79,62,29.73,29.55,20,7,32,0.06
2013-6-29,76.3,67.7,61.0,64.0,59.8,53.0,95,78,45,29.66,29.56,15,2,18,0.00
2013-6-30,74.9,65.0,56.5,66.0,61.0,56.0,98,88,67,29.80,29.66,22,1,28,0.56
2013-7-1,71.1,64.4,59.4,66.0,62.4,59.0,98,93,80,29.94,29.78,13,3,18,2.06
2013-7-2,68.9,64.0,61.8,65.4,61.4,-99.9,97,94,88,30.10,29.92,10,-8,15,0.09
2013-7-3,68.6,65.4,63.3,67.0,64.3,62.0,97,96,92,30.17,30.08,16,3,22,2.69
2013-7-4,71.2,66.0,62.9,69.0,64.8,62.0,97,95,88,30.21,30.12,22,3,31,1.84
2013-7-5,74.1,67.1,64.2,69.0,64.8,63.0,97,92,79,30.20,30.14,15,4,23,1.08
2013-7-6,74.5,67.7,65.0,69.0,65.3,64.0,98,92,77,30.18,30.07,12,3,18,0.32
2013-7-7,74.2,67.1,63.8,70.0,65.3,62.0,97,94,83,30.12,30.03,13,3,23,0.53
2013-7-8,77.5,68.4,62.6,67.0,63.2,61.0,99,85,59,30.14,30.05,11,1,13,0.00
2013-7-9,78.8,69.7,61.3,68.0,64.2,61.0,98,84,60,30.12,29.99,10,2,14,0.00
2013-7-10,77.2,68.1,62.6,71.0,65.9,62.0,98,92,75,30.05,29.89,13,2,24,0.91
2013-7-11,73.4,68.0,63.8,69.0,65.6,62.0,98,92,79,29.92,29.82,6,1,9,0.02
2013-7-12,73.7,65.2,61.2,66.0,62.2,60.0,98,90,67,29.91,29.84,10,2,12,0.01
2013-7-13,68.5,66.9,66.0,66.0,64.7,64.0,97,92,87,30.10,30.04,10,4,16,0.04
2013-7-14,73.3,68.2,65.3,68.0,65.7,64.0,98,92,76,30.26,30.08,16,6,28,1.68
2013-7-15,77.3,70.1,63.7,69.0,65.2,62.0,96,85,65,30.29,30.21,8,2,14,0.01
2013-7-16,85.0,69.5,57.2,70.0,63.4,56.0,98,83,50,30.31,30.17,9,1,13,0.02
2013-7-17,81.3,70.5,64.0,71.0,67.0,63.0,98,89,64,30.24,30.09,12,2,13,0.40
2013-7-18,80.4,71.3,61.6,72.0,67.3,61.0,98,88,67,30.16,30.00,10,1,14,0.01
2013-7-19,78.7,69.3,62.2,72.0,66.3,62.0,99,91,71,30.07,29.93,14,1,21,0.41
2013-7-20,77.3,69.7,63.7,70.0,67.3,63.0,98,92,73,29.98,29.87,14,2,18,0.11
2013-7-21,78.4,69.6,63.0,70.0,66.5,62.0,98,90,68,29.95,29.86,8,2,15,0.01
2013-7-22,73.9,68.4,64.5,70.0,65.7,63.0,97,91,77,29.92,29.76,14,3,18,0.64
2013-7-23,75.9,69.5,64.5,66.0,63.8,63.0,97,83,64,29.81,29.71,14,5,20,0.01
2013-7-24,77.0,70.2,65.0,66.0,63.8,61.0,94,81,60,29.82,29.72,8,3,15,0.00
2013-7-25,73.0,66.5,60.4,66.0,62.1,59.0,95,86,70,30.02,29.82,15,1,17,0.00
2013-7-26,72.5,64.5,56.0,66.0,61.6,55.0,98,90,78,30.07,29.97,14,2,22,0.22
2013-7-27,69.4,64.4,62.0,65.0,63.0,61.0,100,95,86,30.00,29.86,9,2,19,3.97
2013-7-28,74.2,66.0,59.4,64.0,61.0,57.0,97,85,59,29.99,29.89,14,2,18,0.05
2013-7-29,74.0,62.8,50.3,60.0,54.7,49.0,97,77,47,30.18,29.99,9,2,12,0.00
2013-7-30,68.3,61.6,51.6,63.0,58.0,51.0,97,88,72,30.24,30.13,9,1,16,0.00
2013-7-31,64.8,62.6,60.3,64.0,61.1,59.0,98,95,85,30.16,29.96,4,0,7,0.13
2013-8-1,75.7,67.7,62.0,65.0,62.9,61.0,98,86,63,29.96,29.84,8,2,14,0.12
2013-8-2,75.3,66.9,58.2,66.0,60.7,57.0,96,81,59,30.00,29.91,8,1,13,0.00
2013-8-3,76.3,66.9,59.0,65.0,61.7,58.0,98,84,60,30.01,29.91,15,2,17,0.00
2013-8-4,73.4,67.3,59.8,63.0,59.3,53.0,97,77,51,30.01,29.91,16,4,25,0.26
2013-8-5,72.0,64.3,55.9,66.0,60.6,55.0,98,88,73,30.06,29.94,14,1,20,0.00
2013-8-6,72.4,67.2,63.8,68.0,64.3,62.0,96,90,80,29.99,29.92,8,2,18,0.00
2013-8-7,67.4,65.8,64.2,66.0,64.9,63.0,98,96,94,30.03,29.97,11,3,16,0.06
2013-8-8,73.0,69.4,65.9,70.0,67.3,64.9,97,93,87,30.02,29.95,18,3,18,0.10
2013-8-9,79.2,70.2,66.5,72.0,67.2,65.0,97,90,71,30.00,29.93,13,2,19,0.00
2013-8-10,77.3,69.7,65.2,70.0,66.5,64.0,98,90,74,30.06,29.98,11,2,19,0.09
2013-8-11,78.5,69.8,61.7,69.0,65.8,61.0,98,87,68,30.09,29.99,10,2,17,0.01
2013-8-12,78.3,70.1,62.6,71.0,66.0,62.0,97,87,69,30.04,29.89,8,2,17,1.11
2013-8-13,72.3,65.9,62.2,68.0,63.9,61.0,100,93,80,29.93,29.78,12,2,18,0.39
2013-8-14,67.5,61.3,54.4,61.0,54.3,49.0,93,79,55,30.08,29.86,11,3,16,0.00
2013-8-15,62.8,54.3,45.9,57.0,51.0,45.0,97,89,75,30.17,30.08,6,1,12,0.00
2013-8-16,67.4,56.4,46.0,59.0,52.8,45.0,98,88,69,30.19,30.10,10,2,15,0.01
2013-8-17,62.7,57.7,51.8,59.0,55.8,51.0,97,93,77,30.20,30.12,7,1,10,0.45
2013-8-18,68.0,62.5,59.6,64.0,61.2,59.0,98,96,88,30.20,30.10,12,2,15,2.31
2013-8-19,68.0,64.1,61.4,65.0,62.8,61.0,98,95,89,30.17,30.04,11,2,15,0.21
2013-8-20,74.2,66.6,61.6,68.0,63.9,61.0,98,91,75,30.15,30.07,8,1,12,0.00
2013-8-21,73.1,66.6,60.7,68.0,64.6,60.0,98,93,81,30.19,30.06,12,1,15,0.01
2013-8-22,76.4,68.7,59.0,66.0,63.5,58.0,100,84,66,30.12,29.97,10,2,14,0.01
2013-8-23,74.5,66.5,58.7,67.0,63.0,58.0,98,88,70,30.05,29.93,10,2,22,0.12
2013-8-24,70.5,63.2,55.0,62.0,56.2,53.0,97,80,58,30.30,30.06,8,1,12,0.00
2013-8-25,68.5,59.2,49.1,59.0,54.1,48.0,98,84,65,30.40,30.28,9,1,14,0.00
2013-8-26,74.8,61.9,47.9,62.0,55.8,47.0,98,82,54,30.34,30.11,11,2,17,0.01
2013-8-27,76.6,68.7,62.1,67.0,63.6,60.0,93,84,67,30.12,29.96,16,4,18,0.00
2013-8-28,77.7,71.3,65.7,69.0,65.7,64.0,94,83,67,29.99,29.85,13,4,21,0.00
2013-8-29,81.7,73.2,67.3,70.0,66.6,64.0,95,81,56,29.94,29.84,18,4,32,0.18
2013-8-30,74.0,68.1,63.5,69.0,65.5,62.0,97,91,81,30.00,29.87,11,2,15,0.05
2013-8-31,78.1,68.7,63.5,69.0,64.2,-99.9,97,88,68,29.91,29.82,10,-8,16,0.01
2013-9-1,75.7,65.4,59.0,68.0,63.9,59.0,99,95,77,29.87,29.76,14,1,26,0.96
2013-9-2,75.9,68.4,59.8,67.0,64.2,59.0,98,87,69,29.88,29.77,8,2,12,0.01
2013-9-3,75.1,67.7,59.4,65.0,61.7,56.0,97,82,62,29.96,29.79,12,3,18,0.00
2013-9-4,73.9,63.5,54.1,65.0,58.3,53.0,96,84,63,30.11,29.96,6,1,13,0.00
2013-9-5,76.5,63.2,48.3,61.0,54.9,48.0,98,77,44,30.14,30.05,8,1,12,0.01
2013-9-6,70.0,61.8,54.3,62.0,57.8,53.0,97,87,72,30.17,30.05,15,2,16,0.00
2013-9-7,73.2,62.9,52.3,65.0,58.5,51.0,97,86,67,30.12,29.96,8,1,16,0.00
2013-9-8,76.7,67.6,60.0,65.0,61.9,58.0,95,82,58,29.98,29.89,7,2,13,0.00
2013-9-9,74.5,66.3,56.8,67.0,62.7,56.0,98,89,75,30.13,29.99,11,2,13,0.01
2013-9-10,78.1,67.3,56.7,69.0,63.3,56.0,99,88,64,30.21,30.11,10,1,17,0.00
2013-9-11,76.8,67.4,59.3,69.0,64.4,59.0,98,90,71,30.18,30.05,9,1,13,0.01
2013-9-12,77.5,68.2,59.9,68.0,63.9,59.0,98,86,66,30.05,29.81,16,3,23,0.13
2013-9-13,66.4,61.5,51.1,60.0,53.4,46.0,94,76,53,29.93,29.76,24,7,40,0.01
2013-9-14,66.1,54.0,42.8,54.0,47.8,41.0,95,80,58,30.14,29.92,10,2,14,0.00
2013-9-15,66.7,57.3,47.1,59.0,53.4,46.0,97,87,72,30.23,30.11,12,1,21,0.00
2013-9-16,68.7,60.1,50.0,59.0,55.6,49.0,98,86,66,30.20,30.09,7,1,17,0.02
2013-9-17,58.5,54.1,47.7,52.0,50.4,46.0,96,87,76,30.32,30.20,12,2,14,0.00
2013-9-18,60.2,53.8,49.1,55.0,50.7,46.0,95,89,82,30.30,30.17,10,2,12,0.00
2013-9-19,64.8,59.9,55.7,63.0,58.3,54.0,97,94,88,30.19,30.07,7,1,9,0.02
2013-9-20,73.9,65.1,58.3,66.0,61.6,58.0,98,89,70,30.08,29.88,11,2,18,0.01
2013-9-21,63.3,61.0,55.7,62.0,59.6,54.0,98,95,92,29.89,29.67,25,6,35,1.00
2013-9-22,65.3,56.4,49.5,54.0,51.0,47.0,95,83,66,29.94,29.74,12,3,16,0.01
2013-9-23,63.7,52.8,42.8,56.0,49.6,42.0,98,89,72,30.08,29.93,13,1,15,0.00
2013-9-24,69.2,56.2,45.3,60.0,52.4,44.0,98,88,60,30.11,29.92,11,1,14,0.01
2013-9-25,58.4,54.3,49.7,57.0,53.3,49.0,98,96,90,29.96,29.86,8,0,8,0.19
2013-9-26,66.7,57.5,49.6,57.0,52.9,47.0,98,86,54,30.05,29.91,10,1,11,0.00
2013-9-27,67.0,54.8,43.2,56.0,50.7,42.0,98,87,61,30.20,30.05,8,1,9,0.01
2013-9-28,60.9,54.9,51.3,54.0,51.2,49.0,95,87,76,30.25,30.15,6,1,10,0.00
2013-9-29,64.5,55.3,49.2,57.0,51.7,47.0,96,88,73,30.19,30.02,7,1,14,0.00
2013-9-30,64.1,56.3,47.9,56.0,52.9,47.0,97,89,73,30.09,30.00,8,0,14,0.00
2013-10-1,70.2,57.3,45.4,59.0,52.0,45.0,99,84,56,30.16,30.04,8,1,13,0.01
2013-10-2,72.2,59.4,48.6,60.0,54.5,48.0,98,85,59,30.18,30.05,8,1,11,0.01
2013-10-3,71.0,59.9,49.8,62.0,55.9,49.0,100,87,66,30.15,30.05,9,1,15,0.00
2013-10-4,74.6,62.3,51.3,63.0,57.9,50.0,98,87,62,30.16,30.05,7,1,13,0.01
2013-10-5,74.9,63.4,51.0,64.0,57.9,50.0,98,84,57,30.16,30.01,13,1,16,0.01
2013-10-6,70.7,65.3,59.9,63.0,60.1,57.0,93,83,73,30.03,29.84,17,2,21,0.00
2013-10-7,63.5,61.9,58.8,61.0,59.9,57.0,96,93,88,29.84,29.76,11,4,25,1.11
2013-10-9,63.6,55.2,46.7,46.0,43.0,40.0,90,66,44,30.11,30.05,6,1,9,0.00
2013-10-10,61.8,51.5,38.8,56.0,47.0,37.0,94,85,70,30.14,30.04,12,3,22,0.00
2013-10-11,67.7,59.4,53.0,52.0,50.3,48.0,89,73,54,30.03,29.91,22,5,24,0.00
2013-10-12,62.6,58.5,55.3,57.0,55.0,52.0,94,88,79,30.08,29.95,6,1,10,0.00
2013-10-13,65.7,59.6,56.6,59.0,56.4,55.0,97,90,72,30.20,30.08,10,2,13,0.06
2013-10-14,61.9,57.3,54.1,57.0,55.1,53.0,96,92,81,30.23,30.13,7,1,10,0.01
2013-10-15,63.0,54.1,43.3,54.0,48.9,42.0,97,83,58,30.19,30.05,9,1,10,0.00
2013-10-16,63.7,54.7,44.9,56.0,50.9,44.0,97,87,73,30.10,29.93,8,1,10,0.00
2013-10-17,60.1,56.5,53.3,59.0,55.1,51.0,98,95,87,29.97,29.80,8,2,16,0.08
2013-10-18,60.8,51.8,42.9,51.0,46.3,40.0,91,82,59,30.04,29.90,10,2,19,0.00
2013-10-19,57.7,52.9,48.5,52.0,47.9,40.0,94,84,55,29.97,29.80,15,3,21,0.00
2013-10-20,57.9,45.4,36.9,41.0,35.1,24.0,85,69,30,30.13,29.92,12,3,17,0.00
2013-10-21,58.1,46.5,34.7,49.0,41.6,33.0,93,83,70,30.18,30.02,11,2,17,0.00
2013-10-22,60.4,52.3,45.8,46.0,44.7,43.0,95,76,56,30.03,29.80,11,2,22,0.00
2013-10-23,49.4,41.8,33.0,45.0,34.4,26.0,90,75,55,30.01,29.70,26,9,37,0.03
2013-10-24,41.5,36.4,31.5,32.0,29.4,26.0,94,76,67,30.21,30.01,24,6,24,0.04
2013-10-25,35.9,31.4,27.8,32.0,26.5,23.0,94,82,71,30.42,30.21,14,5,20,0.04
2013-10-26,47.8,35.9,20.7,34.0,26.6,19.0,92,71,49,30.39,30.13,15,2,21,0.01
2013-10-27,58.6,48.4,40.0,42.0,36.9,34.0,85,66,44,30.14,30.04,19,6,23,0.00
2013-10-28,54.2,50.2,42.9,51.0,47.3,37.0,97,89,80,30.27,30.13,5,0,8,0.01
2013-10-29,62.7,52.8,41.4,52.0,47.5,40.0,97,84,63,30.36,30.23,14,1,15,0.01
2013-10-30,66.2,58.0,51.3,55.0,51.8,49.0,95,80,65,30.27,30.13,16,3,26,0.04
2013-10-31,59.8,57.2,55.7,56.3,53.7,51.0,95,88,80,30.15,29.80,21,10,34,0.01
2013-11-1,69.8,60.7,52.2,57.1,51.8,34.1,96,75,29,29.81,29.58,41,12,48,0.04
2013-11-2,53.2,48.6,41.9,45.0,37.3,31.0,79,66,49,29.98,29.68,25,8,28,0.01
2013-11-3,46.8,40.3,32.1,34.0,31.2,28.0,84,71,54,30.39,29.97,19,6,27,0.00
2013-11-4,46.7,36.5,26.6,29.0,26.9,24.0,93,70,48,30.58,30.40,7,1,14,0.00
2013-11-5,50.2,40.3,28.6,43.0,34.3,25.0,95,80,46,30.59,30.47,7,1,16,0.02
2013-11-6,57.7,50.1,44.5,49.0,46.9,43.0,97,89,74,30.47,30.12,15,2,17,0.04
2013-11-7,54.5,46.2,34.0,51.0,40.6,27.0,96,81,63,30.12,29.98,28,7,29,0.01
2013-11-8,43.6,35.6,28.4,27.0,22.1,19.0,76,60,40,30.36,30.12,18,7,27,0.00
2013-11-9,47.6,38.0,25.3,29.0,23.6,18.0,81,58,33,30.39,30.23,11,1,19,0.00
2013-11-10,55.2,47.0,37.4,35.0,27.8,20.0,66,48,32,30.26,30.15,26,10,36,0.00
2013-11-11,53.5,41.5,28.1,26.0,20.1,17.0,72,45,25,30.35,30.17,11,2,15,0.00
2013-11-12,48.5,35.0,20.7,35.0,21.9,12.0,79,61,38,30.45,30.06,24,10,35,0.00
2013-11-13,36.9,26.1,18.3,16.0,13.5,11.0,76,60,41,30.61,30.43,20,5,25,0.00
2013-11-14,53.9,36.1,18.3,18.0,14.8,8.0,80,47,20,30.54,30.36,12,1,13,0.00
2013-11-15,51.6,38.5,25.6,44.0,30.2,17.0,96,74,31,30.36,30.24,13,2,19,0.20
2013-11-16,49.9,47.3,45.4,49.0,46.5,44.0,100,97,95,30.28,30.20,9,2,17,0.00
2013-11-17,56.7,51.6,49.3,56.0,51.1,49.0,98,98,97,30.21,29.86,21,6,28,0.18
2013-11-18,56.7,51.3,39.4,56.0,39.7,24.0,97,67,42,29.99,29.82,20,10,30,0.07
2013-11-19,45.3,36.8,30.7,25.0,22.2,19.0,76,57,35,30.31,29.97,26,5,34,0.00
2013-11-20,40.5,33.9,27.4,26.0,24.2,22.0,79,68,52,30.51,30.30,10,3,15,0.00
2013-11-21,50.8,40.9,31.9,46.0,37.5,26.0,96,88,73,30.55,30.43,9,2,15,0.00
2013-11-22,60.8,52.6,46.3,54.0,50.9,45.0,97,94,78,30.42,30.10,9,2,16,0.03
2013-11-23,51.9,40.3,25.5,50.0,32.2,14.0,93,74,46,30.21,30.07,24,10,35,0.00
2013-11-24,25.7,20.5,15.5,14.0,5.0,-4.0,70,53,28,30.56,30.20,16,6,26,0.00
2013-11-25,27.9,22.3,12.3,21.0,7.0,1.0,83,53,41,30.58,30.40,9,2,13,0.00
2013-11-26,41.4,36.4,25.6,40.0,35.1,22.0,97,95,83,30.39,29.69,11,2,19,2.53
2013-11-27,40.0,26.0,17.2,39.0,21.7,9.0,97,84,69,30.15,29.63,29,11,49,0.05
2013-11-28,39.6,25.8,14.8,19.0,13.9,10.0,80,63,41,30.52,30.15,16,4,28,0.01
2013-11-29,49.0,34.3,25.2,25.0,18.6,10.0,73,54,34,30.63,30.51,8,2,14,0.00
2013-11-30,38.2,28.9,20.8,23.0,19.9,17.0,85,70,53,30.63,30.41,9,2,14,0.00
2013-12-1,51.5,34.7,19.7,31.0,23.7,16.0,90,68,31,30.40,30.08,7,1,13,0.00
2013-12-2,46.6,36.2,25.3,37.0,30.2,22.0,90,79,68,30.07,29.88,8,1,9,0.00
2013-12-3,52.7,44.0,35.9,45.0,40.0,32.0,96,86,73,29.97,29.88,15,2,17,0.00
2013-12-4,52.8,48.4,45.9,52.0,47.5,45.0,98,97,95,30.07,29.95,11,4,20,0.00
2013-12-5,59.3,55.7,51.9,58.0,54.6,51.0,98,96,90,30.09,29.95,17,5,22,0.06
2013-12-6,63.5,60.2,51.4,61.0,58.4,50.0,100,93,86,29.97,29.86,25,11,40,0.49
2013-12-7,50.8,39.4,31.9,49.0,36.6,30.0,96,90,81,30.42,29.95,12,4,18,0.01
2013-12-8,32.1,28.8,26.8,31.0,27.7,26.0,96,95,94,30.42,30.27,8,1,11,0.31
2013-12-9,53.5,44.1,30.1,50.0,41.9,29.0,97,92,83,30.26,30.04,18,4,26,0.04
2013-12-10,43.0,34.2,24.7,38.0,29.4,15.0,96,83,65,30.29,29.91,23,8,35,0.41
2013-12-11,45.2,32.5,22.3,18.0,13.6,6.0,73,49,23,30.48,30.27,16,7,29,0.00
2013-12-12,31.0,26.1,21.9,17.0,12.5,5.0,77,58,35,30.41,30.30,16,7,29,0.00
2013-12-13,44.1,31.7,21.8,21.0,15.2,9.0,65,52,36,30.42,30.31,13,1,15,0.00
2013-12-14,36.3,33.6,31.7,32.0,27.6,18.0,96,81,48,30.31,29.81,8,1,13,0.73
2013-12-15,41.4,32.2,27.2,41.0,28.6,23.0,97,86,78,30.11,29.77,24,10,31,0.05
2013-12-16,45.9,36.0,26.3,29.0,25.6,23.0,88,68,48,30.21,30.08,18,8,30,0.00
2013-12-17,49.6,39.3,29.4,35.0,29.6,23.0,89,69,50,30.14,29.91,22,9,41,0.07
2013-12-18,37.9,29.9,24.1,23.0,15.4,9.0,72,56,31,30.33,30.02,24,8,33,0.00
2013-12-19,59.5,40.7,24.2,28.0,22.2,15.0,75,51,28,30.38,30.23,11,1,13,0.00
2013-12-20,55.9,47.3,38.4,39.0,28.1,21.0,68,48,31,30.23,30.10,10,3,15,0.00
2013-12-21,57.3,53.2,47.3,57.0,50.6,39.0,98,91,69,30.12,29.95,33,10,41,0.11
2013-12-22,61.3,55.5,52.3,59.0,54.4,51.0,98,96,86,30.02,29.91,30,7,40,1.51
2013-12-23,56.1,44.0,28.3,55.0,41.7,25.0,97,91,84,30.17,29.95,16,4,24,0.55
2013-12-24,28.7,24.1,16.1,25.0,17.8,9.0,89,77,61,30.46,30.17,22,9,30,0.00
2013-12-25,30.9,20.6,10.5,13.0,7.0,-2.0,90,59,34,30.59,30.42,12,1,15,0.00
2013-12-26,40.4,30.5,18.6,24.0,18.2,8.0,73,61,43,30.42,30.33,17,4,26,0.00
2013-12-27,47.0,31.4,19.1,24.0,18.7,15.0,86,63,32,30.52,30.40,8,1,10,0.00
2013-12-28,48.3,34.8,21.6,39.0,22.6,15.0,95,64,29,30.46,30.18,6,1,12,0.23
2013-12-29,45.7,38.6,33.8,44.0,35.7,32.0,97,89,79,30.17,29.76,22,7,31,0.42
2013-12-30,38.4,35.7,31.6,34.0,31.6,26.0,89,84,77,30.15,29.95,21,6,27,0.00
2013-12-31,34.9,30.3,26.2,26.0,20.2,17.0,78,67,52,30.40,30.13,22,7,34,0.00
2014-1-1,39.8,30.8,21.2,26.0,21.0,16.0,87,68,42,30.42,30.17,13,2,18,0.00
2014-1-2,40.4,31.3,15.5,39.0,27.7,12.0,95,87,76,30.16,29.68,29,5,36,0.08